Weather Roundup
Issued by NWS Corpus Christi, TX

Home | Current Version | Previous Version | Text Only | Print | Product List | Glossary On
Versions: 1 2 3 4 5 6 7 8 9 10 11 12 13 14 15 16 17 18 19 20 21 22 23 24 25 26 27 28 29 30 31 32 33 34 35 36 37 38 39 40 41 42 43 44 45 46 47 48 49 50
000
ASUS44 KCRP 011410
HRRCRP

SOUTH TEXAS REGIONAL WEATHER ROUNDUP
NATIONAL WEATHER SERVICE CORPUS CHRISTI TX
900 AM CDT TUE SEP 01 2015


TXZ229>244-011500-
...CORPUS CHRISTI AREA OBSERVATIONS...

CITY           SKY/WX    TMP DP  RH WIND       PRES   REMARKS
CORPUS CHRISTI PTSUNNY   78  73  84 SE12      30.00R
NAS CORPUS CHR PTSUNNY   78  72  81 SE17      30.00R
ROCKPORT       PTSUNNY   79  69  71 SE14      30.02R
KINGSVILLE NAS MOSUNNY   76  76 100 E7        29.99R
ALICE          MOSUNNY   77  75  93 SE10      29.99S
FALFURRIAS     SUNNY     77  73  88 E7        29.98R
$$

...VICTORIA AREA OBSERVATIONS...

CITY           SKY/WX    TMP DP  RH WIND       PRES   REMARKS
VICTORIA       LGT RAIN  74  73  97 SE8       30.05R
BEEVILLE       FAIR      78  74  89 SE9       30.02R
PLEASANTON     HAZE      77  72  84 E7        30.03R VSB 1/2
SAN ANTONIO    PTSUNNY   79  72  79 SE10      30.05R
$$

...LAREDO AREA OBSERVATIONS...

CITY           SKY/WX    TMP DP  RH WIND       PRES   REMARKS
LAREDO         SUNNY     77  71  81 E8        30.00R
COTULLA        PTSUNNY   78  73  84 SE9       30.00R
DEL RIO        MOSUNNY   75  70  84 E9        30.00S
MCALLEN        SUNNY     82  73  74 E9        29.96R
HEBBRONVILLE   NOT AVBL
$$

...OTHER TEXAS OBSERVATIONS...

CITY           SKY/WX    TMP DP  RH WIND       PRES   REMARKS
BROWNSVILLE    MOSUNNY   79  75  87 E8        29.97R
HOUSTON        PTSUNNY   76  74  93 CALM      30.04R
COL. STATION   SUNNY     78  71  79 E5        30.05R
AUSTIN         PTSUNNY   75  72  90 SE7       30.05R
WACO           SUNNY     77  70  79 S8        30.06R
FORT WORTH     MOSUNNY   79  69  71 S7        30.03R
WICHITA FALLS  SUNNY     76  68  76 S8        30.02R
LUBBOCK        MOSUNNY   71  58  63 S9        30.08S
EL PASO        MOSUNNY   77  48  35 NW3       30.06R
$$

...MARINE OBSERVATIONS...

STATION/POSITION TIME  SKY/WX   TEMP    WIND        PRES    VSBY  WAVE   SWELL
                                AIR SEA DIR/SP/G                  HT/PER HT/PER
                 (UTC)          (F)     (DEG/KT/KT) (MB)    (MI)  (FT/S) (FT/S)
PORT ARANSAS     1400            79 84  100/ 21/ 23 1016.6R
BUOY 90 E PORT A 1350            79 84  190/ 14/ 17 1017.3R         3/ 5   2/ 7
BUOY 45 SE BAFFI 1350            78 84  110/ 19/ 23 1015.2R         3/ 5
BUOY 200 E PT IS 1350            86 85  140/ 14/ 16 1015.7R         3/ 5
BUOY 15 E GALVES 1350            84 85  130/ 10/ 12 1016.4R         3/ 5   2/ 5
$$



USA.gov is the U.S. government's official web portal to all federal, state and local government web resources and services.